01 | 10 | 2020

Klimadaten

Klimadaten von der Klimastation Reinstorf   

Datum Zeit Temp. A. Temp. A. min Temp. A. max BodenTemp 1 BodenTemp 2 BodenTemp 3 BodenTemp 4 Feuchte A. BlattFeu 1 Bod.Feucht 1 Luftdruck Regen Wind Richtung Richtung Sonnenschein Zeit Temp. A ET UV Solar Taupunkt Windchill Windböen
30.09.20 00:00:00 6,1 °C 6,0 °C 6,4 °C 7,8 °C 11,1 °C 12,2 °C 14,4 °C 94,00% 15 lf 45 cb 1017,6 hPa 0,0 mm 0,0 km/h (0 Bft) N 0 ° 0 min 6 min 0,000 mm 0,0 UV-I 0 W/m˛ 5,2 °C 6,0 °C 0,0 km/h (0 Bft)
30.09.20 00:30:00 5,8 °C 5,8 °C 6,1 °C 7,8 °C 11,1 °C 11,7 °C 13,9 °C 94,00% 15 lf 46 cb 1017,7 hPa 0,0 mm 0,0 km/h (0 Bft) O-SO 112 ° 0 min 30 min 0,000 mm 0,0 UV-I 0 W/m˛ 4,9 °C 5,8 °C 4,8 km/h (1 Bft)
30.09.20 01:00:00 6,0 °C 5,8 °C 6,1 °C 7,8 °C 10,6 °C 11,7 °C 13,9 °C 94,00% 15 lf 46 cb 1017,9 hPa 0,0 mm 0,0 km/h (0 Bft) O-SO 112 ° 0 min 30 min 0,000 mm 0,0 UV-I 0 W/m˛ 5,1 °C 5,8 °C 8,0 km/h (2 Bft)
30.09.20 01:30:00 6,1 °C 5,9 °C 6,1 °C 7,8 °C 10,6 °C 11,7 °C 13,9 °C 95,00% 15 lf 46 cb 1017,6 hPa 0,0 mm 0,0 km/h (0 Bft) W 270 ° 0 min 30 min 0,000 mm 0,0 UV-I 0 W/m˛ 5,4 °C 5,9 °C 4,8 km/h (1 Bft)
30.09.20 02:00:00 6,4 °C 6,1 °C 6,5 °C 7,8 °C 10,6 °C 11,1 °C 13,9 °C 95,00% 15 lf 47 cb 1017,6 hPa 0,0 mm 0,0 km/h (0 Bft) NW 315 ° 0 min 30 min 0,000 mm 0,0 UV-I 0 W/m˛ 5,7 °C 6,1 °C 4,8 km/h (1 Bft)
30.09.20 02:30:00 5,8 °C 5,8 °C 6,4 °C 7,2 °C 10,0 °C 11,1 °C 13,9 °C 95,00% 15 lf 46 cb 1017,5 hPa 0,0 mm 0,0 km/h (0 Bft) NW 315 ° 0 min 30 min 0,000 mm 0,0 UV-I 0 W/m˛ 5,1 °C 5,8 °C 1,6 km/h (1 Bft)
30.09.20 03:00:00 4,8 °C 4,8 °C 5,8 °C 6,1 °C 10,0 °C 11,1 °C 13,9 °C 95,00% 15 lf 46 cb 1017,4 hPa 0,0 mm 0,0 km/h (0 Bft) NW 315 ° 0 min 30 min 0,000 mm 0,0 UV-I 0 W/m˛ 4,1 °C 4,8 °C 4,8 km/h (1 Bft)
30.09.20 03:30:00 4,5 °C 4,5 °C 4,8 °C 6,7 °C 9,4 °C 10,6 °C 13,9 °C 95,00% 15 lf 47 cb 1017,3 hPa 0,0 mm 0,0 km/h (0 Bft) N 0 ° 0 min 30 min 0,000 mm 0,0 UV-I 0 W/m˛ 3,8 °C 4,5 °C 0,0 km/h (0 Bft)
30.09.20 04:00:00 4,7 °C 4,4 °C 4,7 °C 6,7 °C 9,4 °C 10,6 °C 13,3 °C 95,00% 15 lf 48 cb 1017,2 hPa 0,0 mm 1,6 km/h (1 Bft) NW 315 ° 0 min 30 min 0,000 mm 0,0 UV-I 0 W/m˛ 4,0 °C 4,4 °C 9,7 km/h (2 Bft)
30.09.20 04:30:00 5,4 °C 4,7 °C 5,4 °C 6,7 °C 9,4 °C 10,6 °C 13,3 °C 95,00% 15 lf 48 cb 1017,3 hPa 0,0 mm 1,6 km/h (1 Bft) W-NW 292 ° 0 min 30 min 0,000 mm 0,0 UV-I 0 W/m˛ 4,7 °C 4,7 °C 9,7 km/h (2 Bft)
30.09.20 05:00:00 5,5 °C 5,4 °C 5,6 °C 6,7 °C 9,4 °C 10,6 °C 13,3 °C 95,00% 15 lf 48 cb 1017,2 hPa 0,0 mm 0,0 km/h (0 Bft) NW 315 ° 0 min 30 min 0,000 mm 0,0 UV-I 0 W/m˛ 4,8 °C 5,4 °C 3,2 km/h (1 Bft)
30.09.20 05:30:00 5,5 °C 5,3 °C 5,5 °C 6,7 °C 9,4 °C 10,6 °C 13,3 °C 95,00% 15 lf 48 cb 1017,1 hPa 0,0 mm 0,0 km/h (0 Bft) NW 315 ° 0 min 30 min 0,000 mm 0,0 UV-I 0 W/m˛ 4,8 °C 5,3 °C 1,6 km/h (1 Bft)
30.09.20 06:00:00 5,1 °C 5,1 °C 5,5 °C 6,7 °C 8,9 °C 10,0 °C 13,3 °C 95,00% 15 lf 48 cb 1016,9 hPa 0,0 mm 0,0 km/h (0 Bft) O 90 ° 0 min 30 min 0,000 mm 0,0 UV-I 0 W/m˛ 4,4 °C 5,1 °C 3,2 km/h (1 Bft)
30.09.20 06:30:00 4,5 °C 4,5 °C 5,1 °C 6,1 °C 8,9 °C 10,0 °C 13,3 °C 95,00% 15 lf 48 cb 1016,9 hPa 0,0 mm 0,0 km/h (0 Bft) N 0 ° 0 min 30 min 0,000 mm 0,0 UV-I 0 W/m˛ 3,8 °C 4,5 °C 0,0 km/h (0 Bft)
30.09.20 07:00:00 4,5 °C 4,4 °C 4,6 °C 6,1 °C 8,9 °C 10,0 °C 12,8 °C 95,00% 15 lf 48 cb 1017,1 hPa 0,0 mm 0,0 km/h (0 Bft) O-SO 112 ° 0 min 30 min 0,000 mm 0,0 UV-I 0 W/m˛ 3,8 °C 4,4 °C 4,8 km/h (1 Bft)
30.09.20 07:30:00 4,2 °C 4,2 °C 4,6 °C 6,1 °C 8,9 °C 10,0 °C 12,8 °C 95,00% 15 lf 48 cb 1017,3 hPa 0,0 mm 0,0 km/h (0 Bft) N 0 ° 30 min 30 min 0,000 mm 0,0 UV-I 12 W/m˛ 3,5 °C 4,2 °C 0,0 km/h (0 Bft)
30.09.20 08:00:00 4,7 °C 4,2 °C 4,7 °C 6,1 °C 8,9 °C 9,4 °C 12,8 °C 95,00% 15 lf 48 cb 1017,3 hPa 0,0 mm 0,0 km/h (0 Bft) SO 135 ° 30 min 30 min 0,000 mm 0,0 UV-I 40 W/m˛ 4,0 °C 4,2 °C 3,2 km/h (1 Bft)
30.09.20 08:30:00 5,7 °C 4,7 °C 5,7 °C 7,2 °C 8,9 °C 9,4 °C 12,8 °C 96,00% 15 lf 50 cb 1017,4 hPa 0,0 mm 0,0 km/h (0 Bft) NW 315 ° 30 min 30 min 0,000 mm 0,0 UV-I 81 W/m˛ 5,1 °C 4,7 °C 3,2 km/h (1 Bft)
30.09.20 09:00:00 7,1 °C 5,7 °C 7,1 °C 8,3 °C 8,9 °C 10,0 °C 12,8 °C 96,00% 15 lf 50 cb 1017,5 hPa 0,0 mm 0,0 km/h (0 Bft) N 0 ° 30 min 30 min 0,025 mm 0,0 UV-I 146 W/m˛ 6,5 °C 5,7 °C 0,0 km/h (0 Bft)
30.09.20 09:30:00 10,0 °C 7,1 °C 10,0 °C 10,0 °C 9,4 °C 10,0 °C 12,8 °C 96,00% 15 lf 52 cb 1017,5 hPa 0,0 mm 0,0 km/h (0 Bft) N 0 ° 30 min 30 min 0,000 mm 0,5 UV-I 237 W/m˛ 9,4 °C 7,1 °C 0,0 km/h (0 Bft)
30.09.20 10:00:00 11,6 °C 10,0 °C 11,6 °C 11,7 °C 10,0 °C 10,6 °C 12,8 °C 96,00% 15 lf 54 cb 1017,4 hPa 0,0 mm 0,0 km/h (0 Bft) N 0 ° 30 min 30 min 0,102 mm 0,8 UV-I 290 W/m˛ 11,0 °C 10,0 °C 0,0 km/h (0 Bft)
30.09.20 10:30:00 13,1 °C 11,6 °C 13,1 °C 12,8 °C 10,6 °C 11,1 °C 12,8 °C 96,00% 0 lf 55 cb 1017,3 hPa 0,0 mm 0,0 km/h (0 Bft) S-SO 157 ° 30 min 30 min 0,000 mm 1,1 UV-I 352 W/m˛ 12,5 °C 11,6 °C 3,2 km/h (1 Bft)
30.09.20 11:00:00 14,6 °C 13,1 °C 14,6 °C 15,0 °C 11,1 °C 12,2 °C 12,8 °C 93,00% 0 lf 57 cb 1017,2 hPa 0,0 mm 1,6 km/h (1 Bft) S-SO 157 ° 30 min 30 min 0,178 mm 1,4 UV-I 427 W/m˛ 13,5 °C 13,1 °C 9,7 km/h (2 Bft)
30.09.20 11:30:00 16,3 °C 14,7 °C 16,3 °C 16,1 °C 11,7 °C 12,8 °C 12,8 °C 86,00% 0 lf 58 cb 1017,0 hPa 0,0 mm 1,6 km/h (1 Bft) S-SO 157 ° 30 min 30 min 0,000 mm 1,6 UV-I 494 W/m˛ 14,0 °C 14,7 °C 8,0 km/h (2 Bft)
30.09.20 12:00:00 17,7 °C 16,3 °C 17,7 °C 17,2 °C 12,8 °C 13,9 °C 12,8 °C 77,00% 0 lf 58 cb 1016,9 hPa 0,0 mm 3,2 km/h (1 Bft) S 180 ° 30 min 30 min 0,254 mm 1,8 UV-I 504 W/m˛ 13,6 °C 16,3 °C 8,0 km/h (2 Bft)
30.09.20 12:30:00 18,3 °C 17,7 °C 18,4 °C 17,8 °C 13,9 °C 14,4 °C 12,8 °C 73,00% 0 lf 59 cb 1016,8 hPa 0,0 mm 4,8 km/h (1 Bft) S-SO 157 ° 30 min 30 min 0,000 mm 1,9 UV-I 494 W/m˛ 13,4 °C 17,7 °C 12,9 km/h (3 Bft)
30.09.20 13:00:00 19,0 °C 18,3 °C 19,0 °C 18,3 °C 14,4 °C 15,0 °C 12,8 °C 70,00% 0 lf 58 cb 1016,7 hPa 0,0 mm 4,8 km/h (1 Bft) S-SO 157 ° 30 min 30 min 0,279 mm 1,9 UV-I 499 W/m˛ 13,4 °C 18,3 °C 14,5 km/h (3 Bft)
30.09.20 13:30:00 19,4 °C 19,0 °C 19,4 °C 18,9 °C 15,6 °C 16,1 °C 12,8 °C 65,00% 0 lf 58 cb 1016,5 hPa 0,0 mm 6,4 km/h (2 Bft) S 180 ° 30 min 30 min 0,000 mm 1,9 UV-I 501 W/m˛ 12,6 °C 19,0 °C 14,5 km/h (3 Bft)
30.09.20 14:00:00 19,9 °C 19,4 °C 19,9 °C 18,9 °C 16,7 °C 16,1 °C 12,8 °C 65,00% 0 lf 57 cb 1016,2 hPa 0,0 mm 4,8 km/h (1 Bft) S-SO 157 ° 30 min 30 min 0,305 mm 1,9 UV-I 496 W/m˛ 13,1 °C 19,4 °C 14,5 km/h (3 Bft)
30.09.20 14:30:00 19,9 °C 19,9 °C 20,1 °C 18,9 °C 17,8 °C 16,7 °C 13,3 °C 62,00% 0 lf 57 cb 1016,0 hPa 0,0 mm 6,4 km/h (2 Bft) S-SO 157 ° 30 min 30 min 0,000 mm 1,8 UV-I 475 W/m˛ 12,4 °C 19,9 °C 16,1 km/h (3 Bft)
30.09.20 15:00:00 19,8 °C 19,8 °C 20,0 °C 19,4 °C 18,3 °C 17,2 °C 13,3 °C 63,00% 0 lf 57 cb 1015,8 hPa 0,0 mm 4,8 km/h (1 Bft) S 180 ° 30 min 30 min 0,279 mm 1,6 UV-I 443 W/m˛ 12,5 °C 19,8 °C 14,5 km/h (3 Bft)
30.09.20 15:30:00 19,9 °C 19,8 °C 20,1 °C 19,4 °C 18,3 °C 17,2 °C 13,3 °C 63,00% 0 lf 57 cb 1015,6 hPa 0,0 mm 4,8 km/h (1 Bft) S 180 ° 30 min 30 min 0,000 mm 1,4 UV-I 413 W/m˛ 12,6 °C 19,8 °C 12,9 km/h (3 Bft)
30.09.20 16:00:00 19,7 °C 19,7 °C 19,9 °C 20,6 °C 18,9 °C 17,2 °C 13,9 °C 64,00% 0 lf 57 cb 1015,3 hPa 0,0 mm 4,8 km/h (1 Bft) S-SO 157 ° 30 min 30 min 0,229 mm 1,1 UV-I 357 W/m˛ 12,7 °C 19,7 °C 12,9 km/h (3 Bft)
30.09.20 16:30:00 19,6 °C 19,6 °C 19,7 °C 21,1 °C 18,9 °C 17,2 °C 13,9 °C 65,00% 0 lf 57 cb 1015,1 hPa 0,0 mm 4,8 km/h (1 Bft) S-SO 157 ° 30 min 30 min 0,000 mm 0,9 UV-I 302 W/m˛ 12,8 °C 19,6 °C 12,9 km/h (3 Bft)
30.09.20 17:00:00 19,3 °C 19,3 °C 19,6 °C 17,8 °C 18,3 °C 17,2 °C 13,9 °C 69,00% 0 lf 54 cb 1015,1 hPa 0,0 mm 3,2 km/h (1 Bft) S-SO 157 ° 30 min 30 min 0,152 mm 0,6 UV-I 246 W/m˛ 13,5 °C 19,3 °C 11,3 km/h (2 Bft)
30.09.20 17:30:00 18,4 °C 18,4 °C 19,3 °C 16,7 °C 17,2 °C 16,7 °C 14,4 °C 70,00% 0 lf 54 cb 1014,9 hPa 0,0 mm 1,6 km/h (1 Bft) O-SO 112 ° 30 min 30 min 0,000 mm 0,0 UV-I 169 W/m˛ 12,8 °C 18,4 °C 9,7 km/h (2 Bft)
30.09.20 18:00:00 17,6 °C 17,6 °C 18,4 °C 16,1 °C 16,1 °C 16,1 °C 14,4 °C 73,00% 0 lf 53 cb 1014,8 hPa 0,0 mm 3,2 km/h (1 Bft) O-SO 112 ° 30 min 30 min 0,051 mm 0,0 UV-I 67 W/m˛ 12,7 °C 17,6 °C 11,3 km/h (2 Bft)
30.09.20 18:30:00 16,4 °C 16,4 °C 17,6 °C 14,4 °C 15,6 °C 16,1 °C 14,4 °C 76,00% 0 lf 51 cb 1014,8 hPa 0,0 mm 3,2 km/h (1 Bft) O-SO 112 ° 30 min 30 min 0,000 mm 0,0 UV-I 26 W/m˛ 12,2 °C 16,4 °C 9,7 km/h (2 Bft)
30.09.20 19:00:00 14,4 °C 14,4 °C 16,4 °C 13,3 °C 15,0 °C 15,6 °C 14,4 °C 80,00% 1 lf 50 cb 1014,9 hPa 0,0 mm 0,0 km/h (0 Bft) O-SO 112 ° 0 min 30 min 0,025 mm 0,0 UV-I 11 W/m˛ 11,0 °C 14,4 °C 4,8 km/h (1 Bft)
30.09.20 19:30:00 13,0 °C 13,0 °C 14,4 °C 12,8 °C 14,4 °C 15,0 °C 14,4 °C 84,00% 4 lf 50 cb 1014,8 hPa 0,0 mm 0,0 km/h (0 Bft) O-SO 112 ° 0 min 30 min 0,000 mm 0,0 UV-I 0 W/m˛ 10,4 °C 13,0 °C 1,6 km/h (1 Bft)
30.09.20 20:00:00 11,7 °C 11,7 °C 13,0 °C 11,7 °C 13,9 °C 15,0 °C 14,4 °C 87,00% 10 lf 49 cb 1014,8 hPa 0,0 mm 0,0 km/h (0 Bft) O-SO 112 ° 0 min 30 min 0,000 mm 0,0 UV-I 0 W/m˛ 9,6 °C 11,7 °C 1,6 km/h (1 Bft)
30.09.20 20:30:00 10,8 °C 10,8 °C 11,7 °C 11,1 °C 13,9 °C 14,4 °C 14,4 °C 89,00% 15 lf 50 cb 1014,8 hPa 0,0 mm 0,0 km/h (0 Bft) N 0 ° 0 min 30 min 0,000 mm 0,0 UV-I 0 W/m˛ 9,1 °C 10,8 °C 0,0 km/h (0 Bft)
30.09.20 21:00:00 9,7 °C 9,7 °C 10,8 °C 10,6 °C 13,3 °C 13,9 °C 14,4 °C 90,00% 15 lf 50 cb 1014,7 hPa 0,0 mm 0,0 km/h (0 Bft) N 0 ° 0 min 30 min 0,000 mm 0,0 UV-I 0 W/m˛ 8,1 °C 9,7 °C 0,0 km/h (0 Bft)
30.09.20 21:30:00 9,3 °C 9,3 °C 9,7 °C 10,0 °C 12,8 °C 13,9 °C 14,4 °C 92,00% 15 lf 49 cb 1014,8 hPa 0,0 mm 0,0 km/h (0 Bft) O-NO 67 ° 0 min 30 min 0,000 mm 0,0 UV-I 0 W/m˛ 8,1 °C 9,3 °C 4,8 km/h (1 Bft)
30.09.20 22:00:00 8,7 °C 8,7 °C 9,3 °C 9,4 °C 12,8 °C 13,3 °C 14,4 °C 92,00% 15 lf 50 cb 1014,9 hPa 0,0 mm 0,0 km/h (0 Bft) N 0 ° 0 min 30 min 0,000 mm 0,0 UV-I 0 W/m˛ 7,5 °C 8,7 °C 0,0 km/h (0 Bft)
30.09.20 22:30:00 8,3 °C 8,3 °C 8,8 °C 9,4 °C 12,2 °C 13,3 °C 14,4 °C 93,00% 15 lf 50 cb 1014,8 hPa 0,0 mm 0,0 km/h (0 Bft) N 0 ° 0 min 30 min 0,000 mm 0,0 UV-I 0 W/m˛ 7,2 °C 8,3 °C 0,0 km/h (0 Bft)
30.09.20 23:00:00 7,7 °C 7,7 °C 8,4 °C 8,9 °C 12,2 °C 12,8 °C 14,4 °C 93,00% 15 lf 50 cb 1014,7 hPa 0,0 mm 0,0 km/h (0 Bft) N 0 ° 0 min 30 min 0,000 mm 0,0 UV-I 0 W/m˛ 6,6 °C 7,7 °C 0,0 km/h (0 Bft)
30.09.20 23:30:00 7,3 °C 7,3 °C 7,7 °C 8,9 °C 11,7 °C 12,8 °C 14,4 °C 94,00% 15 lf 50 cb 1014,5 hPa 0,0 mm 0,0 km/h (0 Bft) N 0 ° 0 min 30 min 0,000 mm 0,0 UV-I 0 W/m˛ 6,4 °C 7,3 °C 0,0 km/h (0 Bft)
30.09.20 23:59:00 7,1 °C 7,1 °C 7,3 °C 8,9 °C 11,7 °C 12,8 °C 14,4 °C 94,00% 15 lf 50 cb 1014,4 hPa 0,0 mm 0,0 km/h (0 Bft) N 0 ° 0 min 29 min 0,000 mm 0,0 UV-I 0 W/m˛ 6,2 °C 7,1 °C 0,0 km/h (0 Bft)

                                                                                                                                                                             _________________________________________________________________________________________________________________________________________________________________________

 Anomalie Daten

ausgewähltes Produkt zur Leistung: Zeitreihen und Trends
 
ausgewähltes Produkt zur Leistung:

 

 

ausgewähltes Produkt zur Leistung: Zeitreihen und Trends

Absolut Daten

ausgewähltes Produkt zur Leistung: Zeitreihen und Trends
ausgewähltes Produkt zur Leistung: Zeitreihen und Trends

 

ausgewähltes Produkt zur Leistung: Zeitreihen und Trends

 

2009 - 2020

Unwetterwarnungen

 

  Radarbild           

aktueller Radarfilm Deutschland

  Europa-Meteoalarm    

 

Waldbrandindex

ausgewähltes Produkt zur Leistung: